Location: Brunembert
(50.7122°N, 1.8935°E)
Time: 03:43:59
(UTC+00:00)

NOSS 2-1 (D) - Pass Details

Date: 22 April 2021
Orbit: 431 x 1770 km, 63.3° (Epoch: 02 May)

Event Time Altitude Azimuth Distance (km) Brightness Sun altitude
Exits shadow 22:02:35 47° 27° (NNE) 602 3.6 -22.5°
Drops below altitude 10° 22:05:18 10° 42° (NE) 1,665 6.0 -22.7°
Sets 22:07:37 0° 44° (NE) 2,664 7.1 -22.9°
